Regional Weather Roundup
Issued by NWS Charleston, SC

Home | Current Version | Previous Version | Text Only | Print | Product List | Glossary On
Versions: 1 2 3 4 5 6 7 8 9 10 11 12 13 14 15 16 17 18 19 20 21 22 23 24 25 26 27 28 29 30 31 32 33 34 35 36 37 38 39 40 41 42 43 44 45 46 47 48 49 50
000
ASUS42 KCHS 230925
RWRCHS

REGIONAL WEATHER ROUNDUP
NATIONAL WEATHER SERVICE CHARLESTON SC
500 AM EDT WED JUL 23 2014

NOTE: "FAIR" INDICATES FEW OR NO CLOUDS BELOW 12,000 FEET WITH NO
SIGNIFICANT WEATHER AND/OR OBSTRUCTIONS TO VISIBILITY.

NOT ALL STATIONS ARE QUALITY CONTROLLED BY THE NATIONAL
WEATHER SERVICE. USE DATA WITH CAUTION...ESPECIALLY
DEWPOINT OBSERVATIONS.

SCZ027-030-031-034>040-042>050-231000-
...SOUTH CAROLINA...

CITY           SKY/WX    TMP DP  RH WIND       PRES   REMARKS
N CHARLESTON   PTCLDY    75  72  90 CALM      30.06S
WATERFRONT PRK   N/A     79 N/A N/A CALM        N/A
FORT JOHNSON   NOT AVBL
MOUNT PLEASANT FAIR      73  73 100 CALM      30.05F FOG
JOHNS ISLAND   MOSUNNY   75  64  69 CALM      30.05F
PINOPOLIS        N/A     79  73  83 MISG      30.00S
MONCKS CORNER    N/A     72  72 100 CALM      30.06S
SUMMERVILLE    FAIR      72  72 100 CALM      30.07S
BEAUFORT MCAS  CLEAR     75  73  93 CALM      30.05F FOG
BEAUFORT ARPT  FAIR      75  75 100 CALM      30.05S
HILTON HEAD IS CLEAR     75  75 100 CALM      30.06S
GEORGETOWN     NOT AVBL
WALTERBORO     FOG       73 N/A N/A CALM      30.06F VSB 1/4
ORANGEBURG     FOG       74  73  97 SW3       30.07S VSB 1/2
BARNWELL       PTSUNNY   73  72  94 CALM      30.07S
AIKEN          FAIR      73  73 100 CALM      30.10S
MANNING        CLOUDY    72 N/A N/A MISG      30.07S
KINGSTREE      NOT AVBL
COLUMBIA       MOCLDY    76  73  91 CALM      30.06S
SUMTER         FOG       73  73 100 SW3       30.05S VSB 3/4
FLORENCE       CLEAR     74  72  93 CALM      30.06S
MYRTLE BEACH   CLEAR     75  72  88 CALM      30.06S
N MYRTLE BEACH CLEAR     75  72  90 CALM      30.06S

$$

GAZ063-065-086>088-099>101-113>116-118-119-134-136>141-150-231000-
...GEORGIA...

CITY           SKY/WX    TMP DP  RH WIND       PRES   REMARKS
SAVANNAH ARPT  CLEAR     75  72  90 CALM      30.05F
HUNTER AAF     CLEAR     74  74 100 W3        30.03F
FORT STEWART   CLEAR     73  72  94 CALM      30.05F
STATESBORO     NOT AVBL
SYLVANIA       MOSUNNY   73  73 100 CALM      30.07S
CLAXTON        FAIR     N/A N/A N/A CALM      30.06S
THOMSON          N/A     74  74 100 CALM      30.11S
AUGUSTA-BUSH   CLEAR     72  70  93 S3        30.06S
AUGUSTA-DANIEL CLEAR     75  72  90 S3        30.07S
SWAINSBORO     FAIR      75  75 100 CALM      30.07S
VIDALIA          N/A     73  72  94 CALM      30.07S
ALMA           PTCLDY    71  70  96 CALM      30.05S FOG
WAYCROSS       FOG       76  76 100 CALM      30.05S VSB 1/2
JESUP          NOT AVBL
BRUNSWICK        N/A     73  72  94 CALM      30.05S VSB 1
SAINT SIMONS   CLEAR     77  75  93 NW3       30.04F

$$

SCZ027-028-034-036>038-045-046-048>050-GAZ119-141-231000-
...LAKE AND SUPPLEMENTAL COASTAL OBSERVATIONS...

STATION/POSITION TIME  TEMP    WIND        PRES    WAVE   SWELL
                       AIR SEA DIR/SP/G            HT/PER HT/PER/DIR
                 (UTC) (F)     (DEG/KT/KT) (MB)    (FT/S) (FT/S/D)
UPR LAKE MARION  NOT AVBL
WINYAH BAY       0900   75     320/  3     1017.0S
LAKE MURRAY      0800   77     210/  5/  7 1017.6R
ACE BASIN NERRS  0900   74        CALM     1018.0S
FORT PULASKI     0900   78     320/  3/  4 1017.6F
SAPELO ISLAND    0900   77      10/  3     1018.0S

$$

ANZ835-935-AMZ111-154-330-350-352-354-374-450-454-472-231000-
...C-MAN AND BUOY OBSERVATIONS...

STATION/POSITION TIME  TEMP    WIND        PRES    WAVE   SWELL
                       AIR SEA DIR/SP/G            HT/PER HT/PER/DIR
                 (UTC) (F)     (DEG/KT/KT) (MB)    (FT/S) (FT/S/D)
FOLLY BEACH CMAN 0900   77     310/  3/  3 1017.9F
BUOY 41004       0900   81 82  240/  4/  6 1016.9S   3/ 8   3/ 8
BUOY 41008       0900   82 84  240/  6/  8 1017.1F   3/ 8   2/120/ 8
5E ST. MARYS GA  0900      84                N/A     2/ 8
FRYING PAN BUOY  NOT AVBL
BUOY 41025       0900          VRB 12/ 14  1017.5F   4/ 5   2/130/ 7
CAPE LOOKOUT NC  0900   78     240/  9/ 11 1017.8R
BUOY 41002       0824   82 82  200/ 14/ 16 1020.1F   3/ 6   2/150/ 6
BUOY 41010       0900   83 84  160/ 14/ 17 1017.8S   4/ 7   2/120/ 8
BUOY 41012       NOT AVBL
ST AUGUSTINE FL  0900   77     280/  3/  4 1017.9S
CAPERS NEARSHORE 0800   81     210/  8/  8   N/A
FRIPP NEARSHORE  NOT AVBL


$$


USA.gov is the U.S. government's official web portal to all federal, state and local government web resources and services.